• In Germany
  • List of Countries
  • For 7 days
  • Water Temperature
  • Satellite Maps
  • Weather Map
  • Weather Widgets
  • user-avatar
    Login

    Hourly Weather Jewłach

    Today, 23 March, Thursday

    Time Temperature Precipitation Wind Pressure Humidity
    00:00 +6°C° 0 mm 2 mps 762 mmHg 48%
    01:00 +7°C° 0 mm 1 mps 763 mmHg 51%
    02:00 +6°C° 0 mm 1 mps 763 mmHg 53%
    03:00 +4°C° 0 mm 0 mps 762 mmHg 50%
    04:00 +4°C° 0 mm 0 mps 763 mmHg 52%
    05:00 +5°C° 0 mm 1 mps 763 mmHg 54%
    06:00 +5°C° 0 mm 1 mps 763 mmHg 56%
    07:00 +7°C° 0 mm 1 mps 763 mmHg 50%
    08:00 +9°C° 0 mm 1 mps 763 mmHg 45%
    09:00 +11°C° 0 mm 1 mps 763 mmHg 39%
    10:00 +13°C° 0 mm 1 mps 763 mmHg 37%
    11:00 +14°C° 0 mm 1 mps 762 mmHg 35%
    12:00 +15°C° 0 mm 1 mps 762 mmHg 33%
    13:00 +15°C° 0 mm 1 mps 762 mmHg 32%
    14:00 +15°C° 0 mm 1 mps 762 mmHg 32%
    15:00 +16°C° 0 mm 1 mps 762 mmHg 32%
    16:00 +14°C° 0 mm 1 mps 762 mmHg 39%
    17:00 +13°C° 0 mm 2 mps 763 mmHg 45%
    18:00 +12°C° 0 mm 2 mps 763 mmHg 51%
    19:00 +10°C° 0.1 mm 2 mps 764 mmHg 58%
    20:00 +9°C° 0.1 mm 2 mps 764 mmHg 66%
    21:00 +8°C° 0.1 mm 2 mps 765 mmHg 73%
    22:00 +8°C° 0 mm 2 mps 765 mmHg 78%
    23:00 +7°C° 0 mm 2 mps 766 mmHg 83%

    Tomorrow, 24 March, Friday

    Time Temperature Precipitation Wind Pressure Humidity
    00:00 +6°C° 0 mm 2 mps 766 mmHg 88%
    01:00 +7°C° 0 mm 1 mps 766 mmHg 90%
    02:00 +7°C° 0 mm 1 mps 766 mmHg 91%
    03:00 +7°C° 0 mm 1 mps 766 mmHg 92%
    04:00 +7°C° 0 mm 1 mps 767 mmHg 93%
    05:00 +7°C° 0 mm 1 mps 767 mmHg 93%
    06:00 +7°C° 0 mm 1 mps 767 mmHg 93%
    07:00 +8°C° 0 mm 1 mps 767 mmHg 87%
    08:00 +9°C° 0 mm 1 mps 767 mmHg 81%
    09:00 +10°C° 0 mm 2 mps 767 mmHg 74%
    10:00 +12°C° 0 mm 2 mps 767 mmHg 68%
    11:00 +13°C° 0 mm 2 mps 767 mmHg 62%
    12:00 +14°C° 0 mm 2 mps 766 mmHg 55%
    13:00 +15°C° 0 mm 2 mps 766 mmHg 53%
    14:00 +14°C° 0 mm 3 mps 766 mmHg 51%
    15:00 +16°C° 0 mm 3 mps 765 mmHg 49%
    16:00 +14°C° 0 mm 3 mps 766 mmHg 54%
    17:00 +12°C° 0 mm 3 mps 766 mmHg 60%
    18:00 +11°C° 0 mm 3 mps 766 mmHg 66%
    19:00 +11°C° 0 mm 3 mps 767 mmHg 69%
    20:00 +10°C° 0 mm 4 mps 767 mmHg 73%
    21:00 +8°C° 0 mm 4 mps 768 mmHg 76%
    22:00 +8°C° 0 mm 3 mps 768 mmHg 80%
    23:00 +7°C° 0 mm 3 mps 767 mmHg 83%

    Day after tomorrow, 25 March, Saturday

    Time Temperature Precipitation Wind Pressure Humidity
    00:00 +6°C° 0 mm 2 mps 767 mmHg 87%
    01:00 +6°C° 0 mm 2 mps 767 mmHg 89%
    02:00 +6°C° 0 mm 1 mps 767 mmHg 91%
    03:00 +5°C° 0 mm 0 mps 766 mmHg 92%
    04:00 +4°C° 0 mm 0 mps 766 mmHg 93%
    05:00 +4°C° 0 mm 0 mps 766 mmHg 94%
    06:00 +4°C° 0 mm 0 mps 766 mmHg 94%
    07:00 +7°C° 0 mm 1 mps 766 mmHg 85%
    08:00 +9°C° 0 mm 1 mps 765 mmHg 76%
    09:00 +11°C° 0 mm 1 mps 765 mmHg 67%
    10:00 +13°C° 0 mm 1 mps 764 mmHg 61%
    11:00 +14°C° 0 mm 1 mps 763 mmHg 56%
    12:00 +15°C° 0 mm 1 mps 762 mmHg 50%
    13:00 +16°C° 0 mm 1 mps 762 mmHg 48%
    14:00 +18°C° 0 mm 1 mps 761 mmHg 45%
    15:00 +18°C° 0 mm 1 mps 760 mmHg 43%
    16:00 +16°C° 0 mm 1 mps 760 mmHg 48%
    17:00 +14°C° 0 mm 1 mps 760 mmHg 54%
    18:00 +13°C° 0 mm 1 mps 760 mmHg 59%
    19:00 +12°C° 0 mm 1 mps 761 mmHg 62%
    20:00 +10°C° 0 mm 2 mps 761 mmHg 64%
    21:00 +10°C° 0 mm 2 mps 761 mmHg 67%
    22:00 +9°C° 0 mm 2 mps 761 mmHg 71%
    23:00 +8°C° 0 mm 2 mps 761 mmHg 74%

    26 March, Sunday

    Time Temperature Precipitation Wind Pressure Humidity
    00:00 +7°C° 0 mm 2 mps 761 mmHg 78%
    01:00 +8°C° 0 mm 1 mps 761 mmHg 81%
    02:00 +7°C° 0 mm 1 mps 761 mmHg 83%
    03:00 +6°C° 0 mm 0 mps 761 mmHg 86%
    04:00 +7°C° 0 mm 1 mps 761 mmHg 85%
    05:00 +7°C° 0 mm 1 mps 761 mmHg 83%
    06:00 +7°C° 0 mm 1 mps 761 mmHg 82%
    07:00 +8°C° 0 mm 2 mps 761 mmHg 70%
    08:00 +12°C° 0 mm 2 mps 760 mmHg 58%
    09:00 +15°C° 0 mm 2 mps 760 mmHg 47%
    10:00 +16°C° 0 mm 3 mps 760 mmHg 43%
    11:00 +18°C° 0 mm 3 mps 759 mmHg 39%
    12:00 +19°C° 0 mm 3 mps 759 mmHg 35%
    13:00 +20°C° 0 mm 3 mps 759 mmHg 33%
    14:00 +20°C° 0 mm 3 mps 759 mmHg 31%
    15:00 +21°C° 0 mm 3 mps 758 mmHg 30%
    16:00 +19°C° 0 mm 3 mps 759 mmHg 34%
    17:00 +17°C° 0 mm 2 mps 759 mmHg 37%
    18:00 +15°C° 0 mm 1 mps 760 mmHg 41%
    19:00 +14°C° 0 mm 1 mps 760 mmHg 41%
    20:00 +13°C° 0 mm 1 mps 761 mmHg 40%
    21:00 +12°C° 0 mm 1 mps 762 mmHg 40%
    22:00 +12°C° 0 mm 1 mps 762 mmHg 41%
    23:00 +12°C° 0 mm 1 mps 762 mmHg 41%

    27 March, Monday

    Time Temperature Precipitation Wind Pressure Humidity
    00:00 +10°C° 0 mm 2 mps 762 mmHg 42%
    01:00 +11°C° 0 mm 1 mps 762 mmHg 45%
    02:00 +10°C° 0 mm 1 mps 762 mmHg 49%
    03:00 +9°C° 0 mm 1 mps 762 mmHg 53%
    04:00 +9°C° 0 mm 1 mps 762 mmHg 55%
    05:00 +9°C° 0 mm 1 mps 762 mmHg 58%
    06:00 +9°C° 0 mm 1 mps 762 mmHg 60%
    07:00 +11°C° 0 mm 1 mps 762 mmHg 52%
    08:00 +14°C° 0 mm 1 mps 762 mmHg 44%
    09:00 +16°C° 0 mm 1 mps 762 mmHg 36%
    10:00 +19°C° 0 mm 1 mps 761 mmHg 34%
    11:00 +20°C° 0 mm 1 mps 760 mmHg 31%
    12:00 +22°C° 0 mm 1 mps 760 mmHg 28%
    13:00 +22°C° 0 mm 1 mps 759 mmHg 28%
    14:00 +22°C° 0 mm 1 mps 759 mmHg 27%
    15:00 +23°C° 0 mm 1 mps 759 mmHg 26%
    16:00 +21°C° 0 mm 1 mps 759 mmHg 30%
    17:00 +19°C° 0 mm 1 mps 759 mmHg 35%
    18:00 +16°C° 0 mm 1 mps 759 mmHg 40%
    19:00 +15°C° 0 mm 1 mps 760 mmHg 41%
    20:00 +14°C° 0 mm 1 mps 760 mmHg 43%
    21:00 +13°C° 0 mm 1 mps 761 mmHg 45%
    22:00 +13°C° 0 mm 1 mps 761 mmHg 48%
    23:00 +12°C° 0 mm 1 mps 761 mmHg 51%

    28 March, Tuesday

    Time Temperature Precipitation Wind Pressure Humidity
    00:00 +10°C° 0 mm 2 mps 760 mmHg 54%
    01:00 +11°C° 0 mm 1 mps 760 mmHg 58%
    02:00 +10°C° 0 mm 1 mps 760 mmHg 62%
    03:00 +10°C° 0 mm 1 mps 760 mmHg 66%
    04:00 +10°C° 0 mm 1 mps 760 mmHg 66%
    05:00 +9°C° 0 mm 1 mps 760 mmHg 67%
    06:00 +9°C° 0 mm 1 mps 760 mmHg 67%
    07:00 +12°C° 0 mm 1 mps 760 mmHg 57%
    08:00 +15°C° 0 mm 2 mps 759 mmHg 46%
    09:00 +18°C° 0 mm 2 mps 759 mmHg 36%
    10:00 +19°C° 0 mm 3 mps 758 mmHg 32%
    11:00 +21°C° 0 mm 3 mps 758 mmHg 29%
    12:00 +22°C° 0 mm 4 mps 757 mmHg 26%
    13:00 +23°C° 0 mm 4 mps 757 mmHg 25%
    14:00 +23°C° 0 mm 4 mps 756 mmHg 25%
    15:00 +23°C° 0 mm 4 mps 756 mmHg 25%
    16:00 +22°C° 0 mm 3 mps 756 mmHg 29%
    17:00 +20°C° 0 mm 3 mps 756 mmHg 33%
    18:00 +18°C° 0 mm 2 mps 757 mmHg 37%
    19:00 +17°C° 0 mm 2 mps 757 mmHg 37%
    20:00 +16°C° 0 mm 2 mps 758 mmHg 37%
    21:00 +16°C° 0 mm 2 mps 758 mmHg 37%
    22:00 +15°C° 0 mm 2 mps 758 mmHg 38%
    23:00 +14°C° 0 mm 3 mps 758 mmHg 39%
    Show more